RH
20 22 24 24 25 25 29 30 31 39 41 43 46 42 39 41 42 43 47 47 47 48 48 50 51 53 54 55 57 60 64 68 71 74 73 69 69 71 71 73 74 75 76 75 75 76 78 77 75 74 74 74 73 70 66 66 67 62 59 60 56 52 50 46 44 46 45 43 43 39 38 38 38 38 38 38 37 37 37 36 35 32 32 32 32 29 27 24 22 22 19 19 19 16 18 19 14
21 24 26 27 27 28 32 31 37 46 45 45 45 42 40 41 44 46 50 50 49 49 50 52 52 55 55 57 59 62 67 70 72 71 71 71 73 73 74 76 75 77 78 78 77 78 80 79 78 77 76 75 72 70 68 66 65 58 49 49 50 47 47 46 44 44 43 43 42 38 38 38 38 37 35 36 34 32 29 28 26 23 19 20 23 21 21 19 18 18 16 17 19 21 22 16 10
23 27 28 30 32 33 35 34 41 47 44 45 43 43 43 43 48 52 53 52 50 50 51 53 54 56 58 62 63 65 69 72 72 71 72 74 75 73 77 79 76 79 80 81 81 81 83 82 81 78 76 74 74 71 66 64 62 52 39 39 43 43 45 45 42 42 41 41 42 38 36 34 32 32 30 29 25 23 19 17 16 14 13 13 14 16 18 20 20 20 23 23 19 19 18 13 11
25 28 29 31 33 34 39 39 44 45 43 47 43 43 47 50 53 54 54 49 50 51 52 54 55 58 62 66 68 70 72 74 73 73 74 74 75 74 77 79 77 79 81 84 85 85 84 82 79 75 73 72 74 69 63 65 59 45 35 34 36 40 45 39 37 39 38 39 37 28 23 22 21 22 23 20 15 13 11 11 11 10 12 13 15 19 21 23 25 23 27 24 14 14 15 13 14
28 29 30 30 32 35 42 43 45 44 44 49 45 46 51 53 54 54 54 50 51 52 53 56 57 61 64 68 71 74 76 76 75 74 73 72 74 75 77 78 78 78 79 84 84 83 81 78 74 70 68 67 68 61 57 57 48 37 33 30 28 35 36 26 25 28 29 30 26 16 12 13 13 13 13 12 11 10 10 9 10 10 12 12 14 17 17 19 23 22 21 18 14 16 17 17 16
31 32 32 32 34 36 41 44 45 45 46 49 47 50 52 53 55 55 55 52 52 53 56 59 59 62 65 69 72 76 77 76 75 73 72 73 75 75 77 78 77 75 76 81 80 80 78 75 71 68 67 63 59 52 48 46 38 31 26 20 21 27 24 16 15 17 17 18 17 13 11 11 11 11 11 11 11 10 10 10 10 11 12 12 12 13 12 14 15 15 15 15 17 20 20 20 19
35 36 36 36 39 40 45 48 48 49 48 50 50 53 54 56 58 56 56 54 53 55 58 61 62 66 69 72 75 78 78 75 73 72 72 74 74 74 75 74 73 73 76 79 77 76 74 73 70 67 65 58 52 46 42 36 27 21 16 15 16 17 15 12 12 12 12 13 14 13 12 12 12 12 12 12 11 11 11 11 11 12 13 14 14 14 14 15 15 14 16 19 21 22 23 23 22
38 42 44 43 45 47 50 51 51 54 52 54 55 55 56 59 58 57 60 57 57 60 61 63 67 71 75 77 78 79 76 74 73 73 73 73 72 70 69 69 71 75 77 76 73 71 70 69 66 64 60 53 47 38 30 22 16 14 13 14 13 13 13 13 12 12 12 13 14 13 14 14 14 14 14 14 12 12 13 13 14 14 16 17 17 18 18 20 20 20 21 23 24 24 24 24 24
41 46 49 48 49 50 51 52 52 54 55 57 59 58 58 59 58 59 64 64 64 66 66 68 72 74 78 80 79 77 75 74 74 74 73 71 69 66 66 69 71 74 74 72 69 67 67 66 63 60 55 48 37 24 18 16 15 14 12 12 13 13 14 15 15 14 14 15 15 15 16 17 18 18 18 18 17 16 16 16 17 18 20 21 22 22 22 23 24 24 24 24 24 24 24 24 24
44 46 48 50 52 52 52 53 54 56 58 61 61 58 58 61 63 66 71 73 72 71 72 74 75 77 79 80 78 76 74 74 73 73 71 68 66 65 67 68 70 71 69 67 66 65 66 66 62 54 47 38 26 16 16 17 17 15 13 12 13 14 16 17 18 17 17 17 18 17 18 19 21 22 23 23 23 22 22 21 22 23 24 25 25 25 25 25 25 25 25 24 24 24 24 24 23
48 49 49 52 55 56 57 57 58 61 63 66 66 62 63 69 73 77 80 79 78 77 77 77 78 78 79 78 77 76 75 74 73 72 68 66 64 66 68 67 68 67 65 66 64 64 64 63 56 46 38 30 21 18 19 19 20 19 17 15 16 17 19 19 20 21 20 20 20 20 20 21 23 25 26 27 27 27 27 26 26 26 25 26 26 26 26 25 25 25 25 24 24 24 24 23 23
50 57 57 59 61 62 64 66 65 64 67 70 70 68 70 77 79 82 84 81 80 80 78 77 77 77 79 78 77 77 76 73 73 70 66 65 66 67 69 67 67 64 62 63 61 61 61 56 48 38 31 25 21 22 21 21 23 23 22 21 21 22 21 21 23 23 23 23 22 22 23 25 25 26 27 28 28 28 28 29 28 27 26 26 26 25 26 26 25 25 24 24 24 24 23 23 23
52 58 62 67 70 72 74 74 72 69 71 73 73 75 77 79 80 80 82 82 80 81 78 75 74 74 78 78 77 77 76 73 71 68 64 65 68 68 68 67 66 62 58 59 58 56 52 46 38 30 26 24 23 24 23 23 25 25 25 24 23 24 23 22 23 25 25 25 25 24 25 27 27 26 27 28 29 29 29 29 30 29 28 27 26 25 25 26 26 25 24 23 23 23 23 24 23
56 60 66 72 77 79 77 75 75 73 73 74 76 81 80 79 80 78 79 81 80 77 74 74 74 73 77 80 78 75 72 71 68 66 66 68 69 67 65 64 62 57 51 50 48 44 39 34 28 23 23 24 24 25 25 25 26 27 27 25 24 24 24 24 24 26 26 28 28 26 28 29 28 27 28 28 29 30 30 30 31 31 29 27 26 26 25 25 25 25 24 23 23 24 24 25 25
61 65 74 78 79 80 79 77 76 76 77 77 79 83 81 79 78 76 77 79 76 72 71 74 74 72 75 76 73 70 66 66 66 66 67 68 68 66 63 60 55 48 41 36 32 30 29 25 22 21 23 25 25 26 26 26 27 27 27 27 26 25 25 25 25 26 28 29 29 27 28 29 29 29 28 28 28 29 30 31 32 32 31 28 27 26 25 25 24 24 25 26 25 26 26 26 25
63 69 80 82 81 82 83 81 79 80 81 80 82 83 80 78 75 75 75 75 73 70 71 73 72 70 71 71 68 66 63 62 63 65 67 67 66 64 60 53 45 37 30 24 22 23 22 21 22 23 24 25 25 26 26 26 26 27 27 27 26 26 26 25 25 27 28 28 28 28 28 28 30 31 30 29 29 28 29 32 32 32 31 28 26 26 25 25 25 26 27 28 26 26 25 25 25
67 71 78 79 81 82 82 82 82 83 80 81 85 81 77 77 75 74 73 73 73 71 70 70 67 66 67 68 65 65 64 62 60 62 64 65 62 57 52 44 34 28 24 20 20 21 20 21 22 22 23 25 25 26 27 26 26 26 27 27 26 27 27 27 27 27 27 28 29 29 29 29 31 32 31 31 31 28 28 31 31 29 27 26 26 25 26 27 27 27 27 28 27 26 25 24 24
70 74 76 77 80 79 79 80 81 80 77 80 83 77 74 75 75 72 72 73 72 71 68 64 61 59 62 63 61 61 62 60 57 56 58 59 54 46 40 33 26 22 21 20 20 20 20 20 21 22 23 25 24 25 25 26 26 26 26 27 26 28 28 28 28 28 28 28 29 29 28 28 30 31 30 30 30 28 27 28 27 26 25 26 26 27 27 27 27 27 27 27 26 26 24 23 23
70 76 77 77 78 76 75 77 77 74 73 78 79 74 71 71 71 68 72 75 70 69 65 58 55 53 55 55 55 54 54 54 52 50 49 47 41 33 28 24 21 20 20 20 21 21 20 20 21 21 23 25 25 25 25 25 25 25 27 28 27 28 28 27 28 28 28 28 28 28 27 27 29 30 30 29 29 28 26 26 26 25 26 27 28 28 28 28 27 26 26 26 25 24 24 24 25
70 73 75 74 75 74 73 74 74 69 69 76 77 74 71 68 67 65 69 72 70 67 59 51 48 46 46 47 46 45 45 46 44 41 39 34 29 25 22 20 19 19 20 21 21 22 20 19 20 22 23 24 25 25 24 25 25 26 28 29 28 28 28 28 28 28 28 27 27 27 26 26 28 29 29 28 28 27 26 25 25 26 28 29 29 28 28 28 28 27 26 25 25 26 27 27 28
71 71 72 72 72 72 70 68 70 66 65 72 74 74 71 64 62 60 61 64 65 61 51 45 42 39 40 40 38 38 37 36 34 31 29 25 23 22 20 20 20 20 20 21 21 23 21 20 21 22 22 22 22 23 23 25 26 28 29 29 28 27 27 28 27 27 27 27 27 27 26 25 25 27 28 27 26 25 24 25 26 28 29 30 29 29 29 29 29 28 26 27 29 30 30 30 29
69 70 69 70 71 70 67 63 65 66 65 69 72 71 65 57 54 53 54 55 53 46 39 36 34 32 33 32 31 31 29 27 25 24 23 22 21 20 20 20 21 21 21 21 21 23 22 20 22 22 21 21 20 21 24 26 27 28 28 27 28 27 28 28 27 27 28 28 27 26 26 25 24 24 25 25 25 25 25 26 27 29 30 30 30 30 30 29 30 28 28 30 31 30 30 29 29
67 69 68 68 70 69 65 62 61 62 63 65 66 62 53 47 48 48 47 45 42 35 29 27 27 27 27 26 25 24 23 21 20 20 20 20 20 20 21 22 22 23 23 23 22 23 23 21 21 21 21 21 21 23 25 27 27 27 26 26 28 29 29 28 27 27 28 27 25 25 25 24 24 23 22 23 24 25 27 28 29 29 30 31 31 31 30 30 30 28 28 30 30 29 29 29 28
66 69 69 67 67 65 61 58 59 59 58 58 57 53 46 43 45 45 41 37 35 32 26 24 23 24 24 23 22 21 21 19 17 18 18 19 20 21 22 23 23 24 23 23 23 23 23 21 21 21 22 23 25 25 25 25 26 26 27 28 29 29 30 29 27 27 27 26 25 24 24 24 24 23 23 23 24 26 28 29 28 29 30 31 31 31 30 29 29 28 28 29 29 29 29 29 29
66 68 69 65 63 59 54 53 57 56 53 52 50 46 43 41 40 39 37 33 32 30 25 24 22 21 22 21 20 20 21 20 17 17 19 19 20 22 22 22 22 22 21 21 22 23 22 21 21 22 24 25 27 25 23 23 25 28 29 28 28 30 30 29 27 25 25 24 24 23 24 24 23 23 25 25 25 27 29 28 28 29 30 30 31 31 29 28 28 27 28 28 29 29 29 29 29
64 65 65 61 59 53 50 51 52 49 47 47 45 42 39 37 35 32 30 29 30 29 25 23 21 19 20 19 19 19 20 20 18 18 18 19 20 21 21 21 21 20 19 19 21 22 22 22 23 24 25 26 26 24 22 23 26 29 29 27 28 30 29 28 25 24 23 23 23 23 23 23 24 25 26 27 27 27 27 28 29 30 30 29 28 28 28 28 28 29 30 30 29 30 30 29 30
59 63 63 59 55 49 47 48 44 41 40 40 40 40 37 32 32 30 27 27 29 28 27 24 21 19 18 19 18 18 18 17 17 18 18 19 21 21 20 20 20 19 18 18 19 21 22 23 24 24 24 24 24 24 23 24 27 29 29 28 28 29 27 26 25 23 22 22 22 23 23 23 25 26 27 28 28 27 27 28 29 29 28 27 26 26 28 30 30 30 31 31 30 31 32 33 34
57 60 61 58 52 44 44 45 39 38 37 35 35 35 33 30 30 30 27 28 29 27 28 26 22 19 18 18 17 16 16 15 15 16 17 18 20 20 19 19 20 19 19 19 20 22 24 24 24 24 23 23 24 25 24 24 27 28 29 28 27 27 25 25 24 23 23 22 22 22 23 24 25 27 28 28 27 27 28 28 29 28 27 26 27 28 30 32 31 31 32 32 33 36 38 39 40
60 59 59 59 54 46 43 43 40 39 38 34 34 34 32 30 29 28 27 29 30 30 30 27 21 19 18 17 15 15 14 14 14 13 13 15 17 18 18 19 20 20 21 22 23 24 24 24 24 24 24 23 24 25 23 22 25 27 28 28 26 25 25 25 23 23 24 22 22 22 23 25 27 28 28 27 27 27 28 29 29 28 28 27 28 29 31 32 31 31 33 35 38 42 44 44 44
63 62 61 61 57 52 45 41 41 41 40 36 36 39 35 32 30 27 27 29 32 34 32 26 20 18 17 15 15 15 15 16 15 12 11 12 14 16 17 19 20 22 24 25 25 24 24 25 25 26 25 25 26 26 22 20 22 26 27 26 24 23 24 24 24 24 24 22 22 23 25 26 28 29 28 27 27 27 29 30 30 30 29 28 29 31 31 32 32 34 37 40 43 46 47 46 44
65 61 64 64 57 56 48 40 43 44 41 37 37 39 33 30 28 26 29 31 33 34 33 28 21 19 17 16 16 17 19 21 20 18 16 13 13 15 17 20 21 23 25 24 24 25 26 27 27 27 26 26 29 28 23 20 22 24 25 26 24 24 24 24 25 24 24 23 22 24 26 27 29 29 28 28 29 30 30 31 32 32 31 31 31 31 31 32 35 39 42 45 47 47 46 43 43
70 61 63 64 57 58 50 41 45 44 40 37 37 38 32 29 28 27 31 33 34 34 34 31 24 19 19 19 20 23 24 27 27 26 24 21 19 19 20 23 24 24 24 23 24 26 27 28 27 27 26 27 29 28 24 21 21 21 23 25 24 24 24 25 25 24 24 24 24 26 28 29 29 29 29 30 31 31 30 31 33 33 33 33 32 32 33 36 40 45 47 48 47 46 43 42 44
73 64 62 62 57 56 50 44 45 41 39 38 37 36 32 30 32 33 35 36 36 36 36 33 26 22 22 24 27 28 29 31 33 33 33 31 29 28 28 28 27 26 26 25 24 25 24 24 25 26 26 27 29 30 25 20 20 20 21 22 24 24 25 25 25 24 24 24 26 28 29 30 30 30 30 30 31 31 30 31 33 33 33 33 32 33 38 43 47 49 50 48 46 45 44 44 47
70 65 61 60 58 55 52 49 44 38 39 39 35 35 32 31 36 38 37 39 39 38 38 35 30 29 28 30 32 34 34 35 38 38 38 37 35 33 32 31 30 28 28 28 26 25 24 24 25 26 27 28 29 30 24 18 18 19 19 20 23 24 24 25 25 25 25 25 27 29 30 31 31 30 30 30 30 31 31 32 34 34 34 34 35 37 43 48 51 50 48 48 47 47 47 47 50
67 67 62 59 55 53 53 52 46 40 39 37 35 37 35 33 38 39 38 43 44 42 43 39 34 34 35 34 34 36 38 39 40 40 39 36 34 33 32 32 31 31 30 29 28 26 26 26 27 28 29 29 30 28 22 16 15 17 18 20 23 24 24 25 25 25 25 26 28 30 31 32 32 32 31 31 32 33 33 34 36 37 37 38 40 43 47 50 51 49 47 48 49 50 51 52 55
67 68 65 60 54 52 55 53 48 41 37 37 36 38 36 31 37 42 43 48 50 48 48 44 39 38 39 37 35 37 39 39 38 37 35 34 32 32 31 31 31 31 31 30 29 28 27 28 28 29 28 28 28 25 19 16 16 16 17 20 24 25 25 25 26 26 26 26 29 30 31 32 33 33 33 34 35 36 37 37 38 40 40 42 45 47 49 49 49 48 47 48 50 53 55 56 58
67 65 64 61 55 53 53 51 47 40 38 41 38 38 38 33 40 47 48 52 54 52 51 48 43 41 41 37 35 37 37 36 34 33 33 32 31 30 29 30 30 30 30 30 30 29 29 28 28 27 27 27 25 21 17 15 16 17 18 21 24 26 26 26 26 26 26 27 30 31 32 33 34 34 35 36 38 40 40 40 41 43 43 44 46 48 48 47 48 47 46 47 51 55 58 59 59
65 65 64 63 59 53 49 47 45 40 40 44 42 42 43 40 44 50 51 53 55 54 51 49 45 42 40 35 33 34 34 32 31 31 32 30 28 27 28 29 29 30 29 29 30 30 29 28 28 27 27 26 22 18 17 16 16 17 18 21 24 26 26 26 27 28 29 30 32 34 35 35 36 37 38 39 40 41 42 42 43 44 44 43 44 47 47 47 47 47 46 48 52 56 58 58 58
66 68 66 65 64 58 49 45 44 41 42 48 48 45 45 45 47 49 52 54 53 51 48 46 44 41 38 34 31 32 32 31 30 31 30 28 26 26 27 28 28 29 28 29 29 29 29 28 28 27 26 24 19 17 16 14 16 19 20 22 25 26 27 29 29 30 32 33 34 35 37 37 38 39 39 40 41 41 41 41 41 41 42 43 45 47 49 49 49 50 51 53 55 56 57 57 58
68 69 68 68 68 64 56 49 46 42 42 48 51 48 47 48 46 47 51 52 50 47 44 43 42 40 36 31 30 30 30 30 29 29 29 28 27 25 26 27 27 28 28 28 28 28 28 28 27 26 24 21 17 16 14 14 18 21 23 25 26 28 29 30 30 31 33 35 36 37 37 38 38 39 39 39 40 39 39 39 39 40 43 46 48 49 50 52 53 54 56 58 58 57 57 57 58
68 67 67 67 67 65 60 55 51 47 44 46 49 49 49 48 46 47 50 50 48 45 43 42 42 39 35 31 29 28 28 28 28 27 27 27 27 26 26 26 28 27 27 26 26 27 28 28 27 26 23 19 16 16 15 16 19 22 24 25 27 27 28 29 29 31 34 37 38 37 36 35 36 37 37 38 38 37 37 38 40 42 46 49 51 52 53 55 56 57 59 60 59 58 57 55 58
68 65 64 63 63 62 59 57 56 55 52 45 44 49 53 52 48 50 52 50 48 45 42 42 41 40 37 33 30 29 28 27 27 27 26 26 26 26 27 27 27 26 25 25 26 27 28 28 28 26 23 19 17 17 17 17 19 21 22 23 24 25 25 26 27 30 33 37 38 37 35 35 36 37 38 39 39 38 39 41 44 47 51 53 54 56 57 58 59 59 61 61 60 58 57 57 62
68 64 61 60 61 61 60 59 60 61 56 47 46 52 56 54 48 51 53 49 47 44 41 41 39 39 39 35 31 30 29 26 26 27 26 26 26 26 28 27 26 25 25 25 26 27 28 28 27 25 21 18 18 18 17 17 19 20 21 21 22 22 23 24 26 29 32 35 37 38 38 38 40 41 43 46 47 47 48 49 51 53 55 56 57 58 59 60 61 62 65 65 62 59 58 62 69
67 64 60 60 60 61 61 59 60 64 59 54 55 54 54 51 46 50 53 48 46 42 39 40 39 37 37 34 30 30 29 26 25 27 27 27 27 27 27 27 25 24 25 26 27 29 29 29 26 23 19 17 17 17 16 17 18 19 20 21 22 24 25 27 28 30 33 35 37 40 41 43 45 46 48 51 52 53 54 54 56 56 55 56 57 59 59 61 62 64 67 68 65 61 60 66 74
66 63 62 63 62 62 64 61 62 64 58 57 59 53 52 53 49 51 51 46 44 41 38 38 38 36 34 31 30 29 29 26 25 26 26 27 28 27 26 25 25 25 26 28 29 31 31 29 27 23 19 17 17 18 18 18 19 20 22 24 26 28 29 30 31 31 33 35 36 39 42 45 47 48 50 52 52 52 52 52 54 55 55 55 57 59 60 62 63 65 68 69 68 64 62 67 76
65 63 63 64 65 67 66 64 63 61 57 57 57 52 52 54 50 50 47 43 42 38 36 36 36 35 32 30 30 29 30 28 28 27 26 26 26 26 25 25 25 26 27 29 30 32 32 30 28 25 22 20 20 21 21 21 22 23 25 27 29 30 30 31 31 31 32 34 35 38 41 44 46 48 50 50 50 49 49 50 53 55 56 56 59 60 61 62 63 67 69 69 69 66 65 68 76
64 64 63 61 65 69 69 69 63 57 60 58 54 52 52 51 50 48 44 41 39 36 35 35 33 32 30 29 31 30 31 30 30 29 26 25 24 24 25 25 27 27 27 29 30 32 32 30 30 29 26 23 23 23 24 25 25 25 27 28 29 30 30 30 30 30 31 33 34 36 40 43 44 45 47 48 49 50 51 53 55 56 57 58 60 62 63 64 66 69 69 68 68 66 66 68 74
64 66 65 62 65 65 66 69 62 60 65 59 53 54 52 51 50 46 42 39 38 36 34 33 31 30 28 29 31 31 31 31 31 29 26 24 24 24 25 25 26 27 28 29 30 31 32 31 30 31 29 26 24 25 25 26 26 27 27 27 28 29 29 30 30 31 31 32 33 34 37 39 40 42 44 46 49 51 53 55 55 55 56 57 60 63 64 66 68 70 67 66 67 67 66 67 71
61 64 68 67 69 68 69 72 67 65 65 56 53 55 50 48 46 42 39 37 36 35 33 31 30 29 29 29 31 31 31 31 29 27 26 26 27 28 28 28 27 28 29 29 30 31 31 31 31 31 31 28 26 26 26 27 27 28 28 29 29 30 30 31 31 31 31 31 31 32 34 36 37 40 42 44 47 49 51 52 52 53 54 56 60 63 66 68 70 72 71 67 67 66 64 63 67
58 61 67 69 72 74 77 79 71 65 62 55 55 55 50 48 42 38 37 32 32 33 30 30 29 28 28 29 30 31 32 32 29 28 27 28 30 32 33 34 32 32 33 33 32 32 31 31 31 31 31 29 27 27 28 29 29 30 30 31 31 31 31 31 32 32 31 31 31 31 32 34 36 38 40 42 44 46 48 49 49 51 53 57 61 64 67 69 72 77 75 70 68 66 61 59 59
60 62 64 66 71 71 71 73 68 64 62 57 56 54 52 48 41 37 35 30 29 29 29 30 29 28 29 29 31 32 32 33 32 30 31 31 32 34 35 35 34 34 35 36 35 35 33 32 32 32 32 30 30 30 31 31 31 32 32 32 32 32 32 32 33 33 32 31 30 31 32 34 36 38 40 42 44 46 48 48 50 53 56 59 64 67 69 72 78 80 72 65 66 66 62 58 56
61 63 62 63 65 63 61 65 65 63 61 59 56 54 53 48 40 37 34 31 29 28 28 29 30 30 31 31 32 32 32 34 34 32 33 34 35 37 37 36 35 36 37 38 37 37 36 34 33 34 34 34 34 34 33 34 33 33 34 34 34 34 35 36 37 36 34 32 32 32 34 36 37 39 40 42 44 46 48 50 52 55 58 63 66 70 72 77 82 79 67 62 62 61 60 60 59
62 63 65 63 59 58 59 61 64 63 62 61 57 53 51 45 37 35 35 32 29 28 27 28 30 30 30 31 32 31 32 34 34 33 35 36 37 39 40 39 38 38 38 39 39 39 37 35 35 36 36 37 38 38 38 39 40 40 41 42 42 43 44 46 46 45 43 41 41 41 43 44 45 45 45 45 45 47 49 50 52 55 61 66 69 73 76 77 78 72 64 60 60 61 62 63 62
63 64 65 62 57 59 61 62 67 68 66 64 58 53 53 46 36 33 33 31 29 27 26 27 29 29 29 31 31 30 31 32 34 35 36 38 38 39 41 41 41 40 40 40 40 39 38 36 37 38 39 40 42 44 45 46 48 49 49 50 51 52 52 53 54 54 54 54 54 53 53 53 54 54 53 52 51 52 52 51 53 58 64 67 70 73 73 73 71 64 59 57 57 61 66 68 64
60 62 61 60 62 65 64 64 69 69 66 65 59 54 50 43 37 34 31 30 30 28 26 26 27 28 28 30 31 32 32 32 34 35 37 38 38 39 40 42 44 43 42 42 42 41 39 38 39 40 41 43 46 49 51 52 54 54 54 55 55 55 55 56 57 58 59 60 60 59 58 58 59 59 58 57 57 58 58 58 60 62 65 65 68 68 66 66 63 58 54 53 57 63 69 72 65
59 60 57 58 65 69 66 63 64 62 62 64 61 55 47 39 37 34 29 30 32 30 28 26 26 27 28 31 32 33 33 32 33 35 37 38 39 40 41 43 45 46 45 45 44 43 42 41 42 43 44 46 48 51 54 55 56 57 58 59 58 57 57 58 59 59 60 61 62 63 63 63 63 63 63 62 63 66 68 66 63 62 62 61 63 61 57 56 55 52 52 55 62 68 71 71 63
58 61 59 59 63 66 65 62 61 59 61 66 63 57 48 39 36 33 27 28 31 30 28 27 27 28 30 32 33 33 33 32 33 35 37 39 40 41 42 44 46 47 48 48 46 45 44 43 43 45 47 49 50 53 55 57 58 60 61 61 60 59 58 59 60 60 62 63 64 66 66 67 68 69 69 68 68 70 69 66 63 61 59 56 54 51 48 52 54 54 58 64 67 69 69 65 60
55 58 58 60 65 70 69 65 62 58 57 61 59 53 47 41 38 33 27 27 30 31 29 27 27 28 30 32 33 32 32 31 32 35 37 39 40 41 43 44 46 48 51 51 49 48 46 46 47 48 49 50 52 53 55 57 59 60 61 61 61 60 60 60 61 61 63 63 64 66 68 69 71 72 72 70 69 67 64 62 61 59 57 55 53 52 52 55 57 58 63 66 66 65 62 56 53